Weather in Bugulma

Russia / Republic of Tatarstan     54°32′11″N   52°47′22″E
temp.,
°C
wind,
m/s
gust,
m/s
humid.,
%
clouds,
%
prec.,
mm/h
press.,
hPa
HPBL,
m
13 may, thu
thu1300:00+15sse2249100 0.0 102611
03:00+14ese225332 0.0 102710
06:00+17ese26535 0.0 1027197
09:00+22se57405 0.0 1027864
12:00+24sse67330 0.0 10261555
15:00+25sse56333 0.0 10251534
18:00+22sse36510 0.0 1024128
21:00+18se33555 0.0 102522
14 may, fri
fri1400:00+16se335747 0.0 102523
03:00+15se3357100 0.0 102525
06:00+18sse311555 0.0 1025309
09:00+23s69375 0.0 1025632
12:00+26ssw68305 0.0 10241143
15:00+27ssw67299 0.0 10241542
18:00+23s3447100 0.0 102359
21:00+19s335487 0.0 102445
15 may, sat
sat1500:00+17s34545 0.0 102338
03:00+16s33545 0.0 102430
06:00+19s385533 0.0 1024217
09:00+24ssw58365 0.0 1024649
12:00+27ssw67285 0.0 10231431
15:00+28sw56275 0.0 10221855
18:00+24ssw33445 0.0 102240
21:00+20s33490 0.0 102223
16 may, sun
sun1600:00+18s33490 0.0 102124
03:00+17s33505 0.0 102222
06:00+20s25500 0.0 1022139
09:00+25ssw56380 0.0 1021610
12:00+28ssw68311 0.0 10202838
15:00+28sw56275 0.0 10203028
18:00+25s33415 0.0 101932
21:00+20s364548 0.0 101973
17 may, mon
mon1700:00+18ssw3653100 0.0 101989
03:00+18s225882 0.1 101912
06:00+20s3658100 0.0 1020172
09:00+25sw4542100 0.0 1019621
12:00+28wsw44315 0.0 10192317
15:00+27wsw353795 0.0 1018796
18:00+25w1146100 0.0 101812
21:00+19sw486387 0.3 1019134